Showing default

ROCK, 60474

Orbit data source: Space-Track

ROCK, 60474 is an American payload satellite in SSO that was launched on Fri, 16 Aug 2024 UTC via an FALCON 9 launch vehicle from the Air Force Western Test Range (AFWTR). Payload-class satellites include a variety of spacecraft equipped with specific instruments for various scientific and technological missions. These include communications satellites like Starlink; space stations such as the ISS; scientific satellites like the Hubble; Earth observation satellites from companies like Planet Labs, Umbra, and HawkEye 360; GPS; miniature CubeSats for education and research; and military/defense satellites.

Loading next visibility...
Identifier
60474, 2024-149G
Orbit
SSO
Country
Flag of USUS
Related business
Manufacturer
ARRAY
Mission
Operational Commercial Technology
Bus & Motor
CUBESAT 1.5U, Unknown motor
Mass
1.83 kg wet, 1.83 kg dry
Launch date (UTC)
2024-08-16 (1 year ago)
Launch vehicle
FALCON 9
Launch site
Air Force Western Test Range (AFWTR)
Object type
Payload
Rocket body
Debris
Shape & HBR
Box, 0.1 m
Radar Cross Section
0.015 m², Small (<0.1 m²)

Expand to show TLE details & history
Last TLE update: 14 hours ago

TLE from 14 hours ago
0 ROCK
1 60474U 24149G   25289.15906429  .00018343  00000-0  61106-3 0  9999
2 60474  97.4012   6.8361 0002659  68.9812 291.1713 15.31162416 64819
Epoch: 2025-10-16T03:49Z
TLE epoch observation values (Epoch: 2025-10-16T03:49:03.154Z)
Latitude
-0.00008°
Longitude
-75.34982°
Altitude
474.791 km
Speed
7.629 km/s
True Right ascension
00h 27m 20s
True Declination
0° 00' 00"
Sunlit
Object was in full shadow at epoch
Visualization orbit readout
Latitude
Unknown
Longitude
Unknown
Altitude
Unknown
Speed
Unknown
Apparent Right ascension
Unknown
Apparent Declination
Unknown
Sunlit
N/A
Visualization observer readout
Local Sidereal Time
12:35:43
Azimuth
Unknown
Elevation
Unknown
Doppler factor
Unknown
Orbital elements
Apogee altitude
471.114 km
Perigee altitude
467.473 km
Semi-major axis
6,847.431 km
Eccentricity
0.00027
Inclination
97.4012°
RAAN
6.8361°
Arg. of periapsis
68.9812°
True anomaly
291.14288°
Mean anomaly
291.1713°
Eccentric anomaly
291.15709°
Mean motion
3.83047 °/min
Orbital period
93.98 mins
BSTAR
0.00061106
Loading maneuver chart data...
Computing Atmospheric mass density...
Loading historical data...
Loading historical data...
Loading historical data...
Loading historical data...
Loading historical data...
Loading historical data...
Loading historical data...

Documentation

Showing up to 5 results
|